www.pogodaiklimat.ru

Погода и климат >> Архив погоды >> Россия >> Якутия >> Охотский Перевоз


ПОГОДА в Охотском Перевозе

  • Прогноз погоды в Охотском Перевозе
  • Монитор погоды в Охотском Перевозе

АРХИВ ПОГОДЫ в Охотском Перевозе

Время (UTC), дата Ветер
(напр.,м/с)
 
Видим.   Явления Облачность Т
(С)
Тd
(С)
f
(%)
Тe
(С)
Тes
(С)
Комфортность P
(гПа)
Po
(гПа)
Тmin
(С)
Tmax
(С)
R
(мм)
R24
(мм)
S
(см)
12 16.09 В 2 10 км {дождь} 10/3 600 м
[Frnb As op]
+6.6 +5.2 91 +4 +4 1005.4 988.3
15 16.09 С 2 4000 м слаб. дождь 10/0 600 м
[As op]
+6.2 +5.3 94 +4 +4 1003.8 986.7
18 16.09 С 2 4000 м слаб. дождь 10/0 600 м
[As op]
+6.6 +5.5 93 +4 +4 1002.3 985.2
21 16.09 С 2 20 км в посл. час дождь 10/10 1000 м
[Sc]
+6.0 +5.5 97 +3 +3 1003.0 985.9 +5.7 3
00 17.09 Ю 3 20 км {дождь} 9/9 1000 м
[Sc]
+6.0 +3.6 85 +3 +3 1005.3 988.1
03 17.09 СВ 2 20 км в посл. час дождь 10/10 1000 м
[Sc]
+7.3 +3.8 78 +5 +5 1005.6 988.5
06 17.09 СВ 3 50 км {ливн. осадки, дождь} 10/5 600 м
[Cb calv Cs]
+9.7 +5.1 73 +8 +8 1005.2 988.3
09 17.09 Ю 1 10 км слаб. ливневой дождь 10/10 600 м
[Cb calv]
+8.4 +5.3 81 +8 +8 1006.1 989.1 +10.2 0.3
12 17.09 Ю 3 10 км {ливн. осадки} 10/10 600 м
[Cb calv]
+5.8 +4.6 92 +2 +2 1007.3 990.1
15 17.09 Ю 3 10 км 10/10 600 м
[Cb calv]
+5.4 +2.2 80 +2 +2 1008.4 991.2
18 17.09 ЮЗ 2 10 км 9/9 600 м
[Cb calv]
+3.7 +1.4 85 +1 +1 1009.5 992.2
21 17.09 ЮЗ 1 10 км 10/10 1000 м
[Sc]
+3.0 +1.5 90 +1 +1 1010.9 993.4 +3.0 0.8
00 18.09 Ю 2 20 км 10/10 1000 м
[Sc]
+3.6 +1.0 83 +1 +1 1012.3 994.9
03 18.09 ЮЗ 3 20 км 8/8 600 м
[Cu med, cong]
+8.0 -2.1 49 +6 +7 1012.8 995.7
06 18.09 Ю 2 20 км 9/9 1000 м
[Cu Sc]
+7.7 -4.1 43 +6 +7 1013.6 996.5
09 18.09 ЮЗ 2 20 км 9/9 1000 м
[Sc]
+6.8 -1.8 54 +5 +5 1015.3 998.0 +8.2
12 18.09 Ю 2 10 км 3/3 1000 м
[Sc]
+3.8 -1.4 69 +1 +1 1016.9 999.4
15 18.09 ЮЗ 2 10 км 8/8 1000 м
[Sc]
+0.7 -0.1 94 -3 -3 1017.9 1000.2
18 18.09 З 1 10 км 9/9 1000 м
[Sc]
+0.4 -0.7 92 -2 -2 1017.9 1000.2
21 18.09 СЗ 1 10 км 9/9 1000 м
[Sc]
+0.5 -0.9 90 -2 -2 1018.4 1000.7 +0.3
00 19.09 СЗ 1 20 км {дождь} 10/10 1000 м
[Sc]
+2.7 +1.1 89 +1 +1 1018.4 1000.8
03 19.09 В 1 20 км 9/9 600 м
[Sc]
+6.1 +1.9 74 +5 +6 1017.7 1000.4
06 19.09 штиль 0 20 км 9/8 1000 м
[Sc As op]
+7.5 +1.3 65 +7 +7 1016.0 998.8
09 19.09 СВ 2 20 км 6/0
[Ac trans Ci fib]
+7.5 +0.4 61 +6 +6 1014.3 997.2 +7.6 0.0
12 19.09 штиль 0 10 км ясно +0.5 -0.6 92 -1 -1 1014.4 996.8
15 19.09 СЗ 1 10 км 9/9 1000 м
[Sc]
-0.8 -1.4 96 -3 -3 1014.0 996.3
18 19.09 С 2 10 км 10/0
[Cs]
+1.3 -0.7 87 -2 -2 1012.9 995.3
21 19.09 З 1 10 км 9/0
[Ac As Ci fib]
-0.5 -1.4 94 -3 -3 1013.5 995.8 -1.9
00 20.09 Ю 1 10 км слаб. дождь 10/0
[As op]
+3.3 +0.4 81 +2 +2 1014.5 997.0
03 20.09 Ю 3 10 км слаб. дождь 10/9 600 м
[Frnb As op]
+5.2 +4.0 92 +2 +2 1015.5 998.1
06 20.09 Ю 2 20 км в посл. час ливневой дождь 10/9 600 м
[Cb calv Cs]
+5.3 +3.6 89 +3 +3 1015.9 998.5
09 20.09 Ю 3 20 км 10/10 1000 м
[Sc]
+5.9 +3.3 83 +3 +3 1016.3 999.0 +6.1 2
12 20.09 Ю 2 10 км 10/10 1000 м
[Sc]
+4.7 +2.5 86 +2 +2 1017.7 1000.2
15 20.09 ЮЗ 1 10 км 10/10 1000 м
[Sc]
+4.0 +1.4 83 +3 +3 1018.3 1000.8
18 20.09 ЮЗ 1 10 км 10/10 1000 м
[Sc]
+3.3 +1.0 85 +2 +2 1018.3 1000.8
21 20.09 Ю 1 10 км 10/10 1000 м
[Sc]
+2.7 +1.1 89 +1 +1 1018.5 1000.9 +2.7
00 21.09 З 1 20 км 10/10 1000 м
[Sc]
+2.8 +1.0 88 +1 +1 1018.2 1000.6
03 21.09 Ю 1 20 км 10/10 1000 м
[Cu Sc]
+4.0 +0.3 77 +3 +3 1016.7 999.2
06 21.09 В 1 20 км 9/8 600 м
[Cb calv Ci fib]
+5.0 -0.6 67 +4 +5 1015.3 997.9
09 21.09 штиль 0 20 км 9/8 600 м
[Cb calv Ac trans Ci fib]
+4.8 -3.2 56 +4 +4 1015.0 997.5 +5.2
12 21.09 З 2 10 км 10/0
[Ac und]
+1.9 -1.5 78 -1 -1 1015.3 997.7
15 21.09 СЗ 1 4000 м слаб. дождь 10/10 600 м
[Frnb]
+1.3 +0.5 94 -1 -1 1015.2 997.5
18 21.09 СЗ 2 10 км {дождь} ясно -0.5 -0.8 98 -4 -4 1014.9 997.2
21 21.09 ЮЗ 1 4000 м туман поземный ясно -0.3 -0.3 100 -3 -3 1014.9 997.2 -0.9 0.5
00 22.09 З 1 500 м туман ?/? +0.2 +0.2 100 -2 -2 1014.8 997.2
03 22.09 ЮВ 1 20 км {туман} 10/10 600 м
[St]
+1.8 +0.5 91 0 0 1013.9 996.4
06 22.09 С 1 20 км {туман} 9/3 600 м
[Frnb As op]
+3.5 0.0 78 +2 +3 1012.5 995.1
09 22.09 С 1 20 км 10/0
[Ac As]
+3.8 +1.2 83 +2 +2 1011.6 994.2 +4.0
12 22.09 СЗ 1 4000 м слаб. дождь 10/0
[As op]
+2.9 +0.5 84 +1 +1 1012.1 994.6
15 22.09 штиль 0 10 км {дождь, морось} 10/5 600 м
[Frnb As op]
+1.2 +0.7 96 -0 -0 1011.5 993.9
18 22.09 штиль 0 10 км {дождь, морось} 10/4 600 м
[Frnb As op]
+1.4 +1.1 98 0 0 1012.0 994.5
21 22.09 штиль 0 10 км слаб. дождь 10/4 600 м
[Frnb As op]
+1.0 +1.0 100 -0 -0 1011.6 994.0 +1.0 0.9
00 23.09 СЗ 1 20 км {дождь} 10/3 600 м
[Frnb As op]
+2.1 +1.3 94 0 +1 1011.8 994.3
03 23.09 штиль 0 20 км 10/10 600 м
[Frnb]
+3.5 +2.0 90 +2 +2 1012.4 995.0
06 23.09 С 1 20 км {дождь} 10/4 600 м
[Frnb As op]
+4.4 +1.3 80 +3 +3 1012.2 994.8
09 23.09 С 1 20 км {дождь} 10/3 600 м
[Frnb As op]
+4.1 +2.5 89 +3 +3 1012.6 995.2 +4.7 0.3

 

Местоположение метеостанции Охотский Перевоз (Якутия, Россия): широта 61.87 долгота 135.50 высота над уровнем моря 141 м.

В архиве по умолчанию представлена погода в Охотском Перевозе за последнюю неделю. Архивные данные за месяц целиком и за предыдущие месяцы, начиная с января 2011 года, Вы можете получить, выбрав интересующий диапазон дат из раскрывающегося списка и нажав кнопку "Ввод!".


*Определитесь, кто Вы:
робот инопланетянин человек

Внимание! Время в таблицах - всемирное. Для получения местного времени необходимо прибавить поправку, которая равна 9 ч.

Смотрите также архив погоды в соседних городах и на ближайших метеорологических станциях:

Погода в Ытык-Кюёле (Якутия, Россия) (118 км)
Погода в Крест-Хальджае (Якутия, Россия) (120 км)
Погода в Теплом Ключе (Якутия, Россия) (121 км)
Погода в Чурапче (Якутия, Россия) (153 км)
Погода в Усть-Мае (Якутия, Россия) (179 км)
Погода в Амге (Якутия, Россия) (220 км)
Погода в Томпо (Якутия, Россия) (232 км)
Погода в Верхоянском Перевозе (Якутия, Россия) (241 км)
Погода в Восточной (Якутия, Россия) (259 км)
Погода в Югоренке (Якутия, Россия) (260 км)

Пояснения к столбцам:

Ветер - указаны скорость ветра в м/с - средняя за 10 мин, порывы в срок и между сроками (в фигурных скобках) и направление, откуда дует ветер: С - северный, СВ - северо-восточный, В - восточный, ЮВ - юго-восточный, Ю - южный, ЮЗ - юго-западный, З - западный, СЗ - северо-западный.
Видимость - горизонтальная дальность видимости в метрах или километрах. При видимости от 1 до 10 км при отсутствии осадков обычно наблюдается дымка, при ухудшении видимости до 1 км и менее - туман. В сухую погоду видимость может ухудшаться дымом, пылью или мглою.
Явления - указаны атмосферные явления, наблюдавшиеся в срок или в последний час перед сроком; фигурными скобками обозначены явления, наблюдавшиеся между сроками (за 1-3 часа до срока); квадратными скобками обозначены град или гололедные отложения с указанием их диаметра в мм.
Облачность - указаны через наклонную черту общая и нижняя облачность в баллах и высота нижней границы облаков в метрах; квадратными скобками обозначены формы облаков: Ci - перистые, Cs - перисто-слоистые, Cc - перисто-кучевые, Ac - высококучевые, As - высокослоистые, Sc - слоисто-кучевые, Ns - слоисто-дождевые, Cu - кучевые, Cb - кучево-дождевые. Подробнее классификацию облаков см. в Атласе облаков (PDF).
T - Температура воздуха - температура, измеренная на высоте 2 м над землей.
Td - Температура точки росы - температура, при понижении до которой содержащийся в воздухе водяной пар достигнет насыщения.
f - Относительная влажность воздуха - влажноcть воздуха, измеренная на высоте 2 м над землей.
Te - Эффективная температура - температура, которую ощущает одетый по сезону человек в тени. Характеристика душности погоды. При расчете учитывается влияние влажности воздуха и скорости ветра на теплоощущения человека.
Tes - Эффективная температура на солнце - температура, которую ощущает человек, с поправкой на солнечный нагрев. Характеристика знойности погоды. Зависит от высоты солнца над горизонтом, облачности и скорости ветра. Ночью, в пасмурную погоду, а также при ветре 12 м/с и более поправка равна нулю.
P - Атмосферное давление - приведенное к уровню моря атмосферное давление.
Po - Атмосферное давление - измеренное на уровне метеостанции атмосферное давление.
Tmin - Минимальная температура - минимум температуры воздуха на высоте 2 м над землей.
Tmax - Максимальная температура - максимум температуры воздуха на высоте 2 м над землей.
R - Количество осадков - Количество выпавших осадков за период времени, мм. При наведении курсора мыши на число - период времени, за который выпало указанное количество осадков.
R24 - Количество осадков - Количество выпавших осадков за 24 часа, мм.
S - Снежный покров - Высота снежного покрова, см. При наведении курсора мыши на число - состояние снежного покрова и степень покрытия местности в баллах.